Location: Ladrillo (historical)
(32.8195°N, 117.2231°W)
Time: 00:59:03
(UTC+00:00)

Courier 1B - Pass Details

Date: 08 March 2021
Orbit: 963 x 1209 km, 28.3° (Epoch: 15 April)

Event Time Altitude Azimuth Distance (km) Brightness Sun altitude
Rises 11:23:50 0° 211° (SSW) 3,838 - -34.8°
Reaches altitude 10° 11:27:37 10° 193° (SSW) 2,835 - -34.1°
Exits shadow 11:31:31 18° 158° (SSE) 2,285 9.4 -33.3°
Maximum altitude 11:31:56 18° 153° (SSE) 2,275 9.5 -33.2°
Drops below altitude 10° 11:36:08 10° 114° (ESE) 2,743 10.4 -32.4°
Sets 11:39:41 0° 95° (E) 3,664 11.5 -31.6°
